Regional Weather Roundup
Issued by NWS

Home | Current Version | Previous Version | Graphics & Text | Print | Product List | Glossary On
Versions: 1 2 3 4 5 6 7 8 9 10 11 12 13 14 15 16 17 18 19 20 21 22 23 24 25 26 27 28 29 30 31 32 33 34 35 36 37 38 39 40 41 42 43 44 45 46 47 48 49 50
000
ASUS43 KMKX 021811
RWRWI

WISCONSIN REGIONAL WEATHER ROUNDUP
NATIONAL WEATHER SERVICE MILWAUKEE/SULLIVAN WI
100 PM CDT WED SEP 02 2015

NOTE: "FAIR" INDICATES FEW OR NO CLOUDS BELOW 12,000 FEET WITH NO
SIGNIFICANT WEATHER AND/OR OBSTRUCTIONS TO VISIBILITY.

WIZ001-002-006>008-014>016-023>028-021900-
NORTHWEST WISCONSIN

CITY           SKY/WX    TMP DP  RH WIND       PRES   REMARKS
SUPERIOR ARPT  FAIR      71  67  88 S10       29.94F
6HR MIN TEMP:  62; 6HR MAX TEMP:  71; 6HR PCP:  0.09;

ASHLAND        PTSUNNY   68  68 100 E6        30.00F
6HR MIN TEMP:  67; 6HR MAX TEMP:  70; 6HR PCP:  0.24;

HAYWARD        CLOUDY    70  66  87 NE7       30.00F
6HR MIN TEMP:  65; 6HR MAX TEMP:  70; 6HR PCP:  0.14;

SIREN          CLOUDY    69  66  90 E6        29.98S
6HR MIN TEMP:  65; 6HR MAX TEMP:  70; 6HR PCP:  0.08;

CUMBERLAND     TSTM      64  63  94 E8        30.00R
RICE LAKE      TSTM      67  65  93 E7        30.00S
6HR MIN TEMP:  66; 6HR MAX TEMP:  68; 6HR PCP:  0.08;

CHETEK         RAIN     N/A N/A N/A E8        29.99S
LADYSMITH      TSTM      67  65  94 NE8       30.03S
6HR MIN TEMP:  67; 6HR MAX TEMP:  69;

EAU CLAIRE     CLOUDY    71  68  90 NE8       29.96R
6HR MIN TEMP:  69; 6HR MAX TEMP:  73; 6HR PCP:  0.21;

MENOMONIE      CLOUDY    70  67  92 NE6       29.96F THUNDER
6HR MIN TEMP:  68; 6HR MAX TEMP:  72; 6HR PCP:  0.46;

NEW RICHMOND   CLOUDY    66  65  97 E6        29.97R
6HR MIN TEMP:  65; 6HR MAX TEMP:  72; 6HR PCP:  0.23;

OSCEOLA        CLOUDY    67  67 100 E8        29.98R
6HR MIN TEMP:  67; 6HR MAX TEMP:  72; 6HR PCP:  0.42;

$$

WIZ003>005-009-010-017-018-021900-
NORTH CENTRAL WISCONSIN

CITY           SKY/WX    TMP DP  RH WIND       PRES   REMARKS
MANITOWISH WTR RAIN      67  67  99 N5        30.05R
6HR MIN TEMP:  64; 6HR MAX TEMP:  68; 6HR PCP:  0.75;

ARBOR VITAE    LGT RAIN  67  65  92 NW10      30.06R
6HR MIN TEMP:  65; 6HR MAX TEMP:  72; 6HR PCP:  0.44;

WOODRUFF       LGT RAIN  67  65  92 NW10      30.06R
6HR MIN TEMP:  65; 6HR MAX TEMP:  72; 6HR PCP:  0.44;

RHINELANDER    LGT RAIN  69  66  90 NE5       30.04F
6HR MIN TEMP:  67; 6HR MAX TEMP:  72; 6HR PCP:  0.02;

EAGLE RIVER    LGT RAIN  67  67  97 CALM      30.05S
6HR MIN TEMP:  64; 6HR MAX TEMP:  68; 6HR PCP:  0.06;

LAND O LAKES   LGT RAIN  68  67  96 CALM      30.07R
6HR MIN TEMP:  63; 6HR MAX TEMP:  68; 6HR PCP:  0.53;

PHILLIPS       CLOUDY    67  65  94 E7        30.03F
6HR MIN TEMP:  65; 6HR MAX TEMP:  71; 6HR PCP:  0.11;

TOMAHAWK       DRIZZLE   68  66  91 CALM      30.05R
6HR MIN TEMP:  67; 6HR MAX TEMP:  71;

MEDFORD        RAIN      69  68  98 NE7       30.01F
6HR MIN TEMP:  69; 6HR MAX TEMP:  73; 6HR PCP:  0.05;

MERRILL        MOSUNNY   75  70  85 NE9       30.01S
6HR MIN TEMP:  65; 6HR MAX TEMP:  76;

$$

WIZ029-030-035-036-043>047-021900-
CENTRAL WISCONSIN

CITY           SKY/WX    TMP DP  RH WIND       PRES   REMARKS
WAUSAU         MOSUNNY   80  69  69 E5        29.97F HX  83
6HR MIN TEMP:  71; 6HR MAX TEMP:  82;

MOSINEE        PTSUNNY   81  70  69 SW3       29.99F HX  84
MARSHFIELD     CLOUDY    82  68  62 E3        29.98F HX  85
6HR MIN TEMP:  70; 6HR MAX TEMP:  83;

STEVENS POINT  PTSUNNY   83  68  59 SW8       29.98S HX  86
6HR MIN TEMP:  69; 6HR MAX TEMP:  83;

WAUPACA        MOSUNNY   89  67  49 SW8       29.97F HX  91
6HR MIN TEMP:  71; 6HR MAX TEMP:  89;

WAUTOMA        SUNNY     86  69  56 SW7       29.98F HX  90
6HR MIN TEMP:  67; 6HR MAX TEMP:  87;

WISC RAPIDS    FAIR      85  66  53 SW12      29.98F HX  87
6HR MIN TEMP:  71; 6HR MAX TEMP:  86;

CAMP DOUGLAS   MOSUNNY   84  75  74 S6        29.96F HX  92
$$

WIZ011>013-019>022-031-037>040-048>050-021900-
NORTHEAST WISCONSIN

CITY           SKY/WX    TMP DP  RH WIND       PRES   REMARKS
ANTIGO         PTSUNNY   77  69  75 E3        30.02S
SHAWANO        PTSUNNY   86  72  63 CALM      29.97F HX  92
6HR MIN TEMP:  71; 6HR MAX TEMP:  86;

OCONTO         PTSUNNY   86  77  74 SE5       29.95S HX  97
6HR MIN TEMP:  66; 6HR MAX TEMP:  87;

STURGEON BAY   PTSUNNY  N/A N/A N/A MISG        N/A
6HR MIN TEMP:  72; 6HR MAX TEMP:  84;

GREEN BAY      PTSUNNY   86  72  62 SW9       29.97S HX  92
6HR MIN TEMP:  69; 6HR MAX TEMP:  87;

MANITOWOC      SUNNY     88  70  55 MISG      29.98S HX  93
6HR MIN TEMP:  73; 6HR MAX TEMP:  88;

APPLETON       MOSUNNY   84  66  54 SW10      29.97F HX  86
CLINTONVILLE   MOSUNNY   86  68  54 SW3       29.97F HX  89
OSHKOSH        SUNNY     86  70  58 SW7       29.98F HX  90
6HR MIN TEMP:  72; 6HR MAX TEMP:  86;

$$

WIZ032>034-041-042-053>061-021900-
SOUTHWEST WISCONSIN

CITY           SKY/WX    TMP DP  RH WIND       PRES   REMARKS
LA CROSSE      FAIR      85  68  56 S10       29.93F HX  88
6HR MIN TEMP:  73; 6HR MAX TEMP:  85;

SPARTA         FAIR      84  63  49 S5        29.96F HX  85
6HR MIN TEMP:  65; 6HR MAX TEMP:  84;

VIROQUA          N/A     82  67  60 S9        29.98F HX  84
6HR MIN TEMP:  71; 6HR MAX TEMP:  82;

BOSCOBEL       FAIR      86  69  56 S7        29.97F HX  90
6HR MIN TEMP:  65; 6HR MAX TEMP:  86;

PRAIRIE DU CHI FAIR      83  65  55 S7        29.96F HX  85
6HR MIN TEMP:  70; 6HR MAX TEMP:  83;

PLATTEVILLE    FAIR      79  71  76 S8        30.00F HX  82
6HR MIN TEMP:  69; 6HR MAX TEMP:  80;

$$

WIZ056-057-062-063-064-067-068-021900-
SOUTH CENTRAL WISCONSIN

CITY           SKY/WX    TMP DP  RH WIND       PRES   REMARKS
REEDSBURG      FAIR      81  70  69 SW10      29.98F HX  84
6HR MIN TEMP:  68; 6HR MAX TEMP:  84;

BARABOO/DELLS  FAIR      83  66  56 SW13      29.98F HX  85
6HR MIN TEMP:  71; 6HR MAX TEMP:  86;

LONE ROCK      FAIR      82  67  60 SW12      29.99S HX  84
6HR MIN TEMP:  66; 6HR MAX TEMP:  84;

MINERAL POINT  FAIR      81  70  69 SW8       30.01F HX  84
MADISON        PTSUNNY   84  66  54 SW8       30.00S HX  86
6HR MIN TEMP:  70; 6HR MAX TEMP:  85;

MIDDLETON      FAIR      85  66  52 SW10      30.00F HX  87
6HR MIN TEMP:  69; 6HR MAX TEMP:  87;

WATERTOWN      MOSUNNY   87  70  56 SW12G17   30.00F HX  92
6HR MIN TEMP:  66; 6HR MAX TEMP:  87;

MONROE         FAIR      86  66  51 SW20      30.02S HX  88
JANESVILLE     PTSUNNY   88  68  51 SW12G17   30.00F HX  91
$$

WIZ051-052-058>065-066-070>072-021900-
SOUTHEAST WISCONSIN

CITY           SKY/WX    TMP DP  RH WIND       PRES   REMARKS
MILWAUKEE      PTSUNNY   88  68  51 SW8       30.00S HX  91
6HR MIN TEMP:  74; 6HR MAX TEMP:  88;

WAUKESHA       NOT AVBL
MILWAUKEE/TIMM SUNNY     88  64  45 W12       30.01S HX  89
RACINE         SUNNY     89  69  51 SW12      30.02S HX  93
6HR MIN TEMP:  72; 6HR MAX TEMP:  89;

BURLINGTON     SUNNY     83  68  61 SW8       30.02S HX  86
6HR MIN TEMP:  66; 6HR MAX TEMP:  85;

KENOSHA        SUNNY     89  70  53 SW13      30.01F HX  94
6HR MIN TEMP:  71; 6HR MAX TEMP:  89;

FOND DU LAC    MOSUNNY   85  69  58 SW14      29.99F HX  89
6HR MIN TEMP:  71; 6HR MAX TEMP:  86;

SHEBOYGAN      SUNNY     86  70  58 W12       29.99S HX  90
6HR MIN TEMP:  72; 6HR MAX TEMP:  87;

WEST BEND      SUNNY     86  64  48 SW10      30.00S HX  87
JUNEAU         SUNNY     83  70  64 SW12      30.02S HX  87
6HR MIN TEMP:  68; 6HR MAX TEMP:  83; 6HR PCP:  0.07;

$$

LSZ147-162-021900-
LAKE SUPERIOR

STATION/POSITION TIME  TEMP    WIND        PRES    WAVE
                       AIR SEA DIR/SP/G            HT/PER
                 (UTC) (F)     (DEG/KT/KT) (MB)    (FT/S)
W MID LAKE BUOY  1750   58 55   30/  8/  8 1015.1F   0
DEVILS ISLAND    1800   64     140/  9/ 11 1014.5F
PORT WING        1740   69     140/  6/ 23 1014.2F
SAXON HARBOR     1700   65        CALM     1015.9F
$$

LMZ867-665-643>646-021900-
LAKE MICHIGAN

STATION/POSITION TIME  TEMP    WIND        PRES    WAVE
                       AIR SEA DIR/SP/G            HT/PER
                 (UTC) (F)     (DEG/KT/KT) (MB)    (FT/S)
CHAMBERS ISLAND  1700   73     330/  1/  3 1014.9S


USA.gov is the U.S. government's official web portal to all federal, state and local government web resources and services.